ONEWEB-0157

Last updated on April 25, 2021, 12:02 a.m. UTC

1 48055U 21025P   21114.58336806 -.01052887  00000-0 -47224-1 0  9993
2 48055  87.4209 339.3529 0010115 133.0856  40.6702 15.24112867  1795
UTC
Height (km)
Latitude
Longitude
Inclination
Orbital Period
UTC large
Height (km)
Speed (km/s)
/
Latitude / Longitude
Inclination (degrees)
Orbital Period (minutes)
Azimuth
Elevation
Range (km)
Doppler Factor
iOS Compass Heading
iOS Angle

Next 30 passes for location: Hong Kong

Rise time Rise Azimuth (degrees) Set time Set Azimuth (degrees) Duration Max altitude (degrees)

No matching passes for this satellites